QPF
0.01 0.02 0.03 0.04 0.06 0.07 0.10 0.15 0.20 0.24 0.28 0.30 0.31 0.31 0.30 0.27 0.25 0.26 0.27 0.28 0.28 0.30 0.31 0.30 0.32 0.39 0.43 0.44 0.41 0.39 0.34 0.29 0.26 0.23 0.19 0.16 0.13 0.11 0.10 0.09 0.08 0.07 0.07
0.02 0.02 0.03 0.04 0.05 0.08 0.10 0.16 0.20 0.25 0.28 0.30 0.32 0.32 0.33 0.32 0.26 0.26 0.25 0.28 0.31 0.34 0.38 0.40 0.41 0.44 0.46 0.46 0.39 0.39 0.38 0.31 0.25 0.22 0.18 0.14 0.11 0.09 0.08 0.08 0.07 0.05 0.04
0.02 0.03 0.03 0.04 0.04 0.06 0.08 0.11 0.17 0.21 0.22 0.25 0.29 0.30 0.29 0.25 0.22 0.21 0.25 0.31 0.37 0.42 0.42 0.43 0.46 0.44 0.41 0.44 0.43 0.39 0.38 0.34 0.30 0.23 0.19 0.14 0.10 0.09 0.10 0.09 0.08 0.07 0.05
0.03 0.03 0.04 0.05 0.04 0.04 0.05 0.07 0.10 0.15 0.18 0.21 0.24 0.26 0.23 0.23 0.21 0.20 0.22 0.27 0.33 0.36 0.37 0.36 0.36 0.37 0.31 0.31 0.36 0.36 0.35 0.34 0.33 0.30 0.23 0.17 0.13 0.13 0.14 0.14 0.12 0.11 0.09
0.04 0.06 0.07 0.07 0.05 0.04 0.04 0.06 0.06 0.10 0.12 0.16 0.21 0.24 0.24 0.22 0.20 0.19 0.17 0.18 0.21 0.24 0.26 0.27 0.25 0.28 0.27 0.22 0.26 0.30 0.31 0.30 0.29 0.29 0.25 0.21 0.17 0.15 0.15 0.15 0.15 0.15 0.14
0.05 0.06 0.06 0.04 0.03 0.03 0.03 0.04 0.05 0.06 0.10 0.15 0.21 0.23 0.24 0.24 0.21 0.18 0.16 0.16 0.17 0.18 0.20 0.21 0.20 0.19 0.21 0.19 0.19 0.21 0.23 0.26 0.27 0.27 0.25 0.21 0.17 0.15 0.13 0.13 0.15 0.16 0.17
0.05 0.04 0.03 0.03 0.03 0.03 0.02 0.03 0.04 0.05 0.06 0.09 0.12 0.15 0.17 0.20 0.18 0.15 0.15 0.16 0.14 0.15 0.17 0.18 0.19 0.20 0.20 0.20 0.19 0.17 0.16 0.17 0.21 0.22 0.21 0.20 0.19 0.17 0.15 0.16 0.18 0.18 0.16
0.05 0.04 0.02 0.02 0.02 0.02 0.02 0.03 0.02 0.03 0.04 0.05 0.06 0.08 0.10 0.14 0.17 0.17 0.15 0.15 0.13 0.14 0.14 0.14 0.13 0.11 0.12 0.15 0.17 0.17 0.16 0.15 0.15 0.17 0.17 0.17 0.17 0.16 0.15 0.14 0.13 0.14 0.14
0.03 0.02 0.01 0.01 0.01 0.02 0.02 0.02 0.02 0.03 0.03 0.04 0.05 0.05 0.05 0.07 0.10 0.15 0.16 0.13 0.12 0.11 0.09 0.08 0.08 0.07 0.07 0.07 0.07 0.10 0.12 0.14 0.14 0.15 0.15 0.14 0.12 0.10 0.08 0.07 0.07 0.07 0.08
0.01 0.01 0.00 0.01 0.01 0.01 0.01 0.01 0.02 0.03 0.03 0.04 0.05 0.05 0.05 0.05 0.05 0.07 0.11 0.11 0.08 0.07 0.06 0.04 0.03 0.03 0.04 0.04 0.04 0.05 0.07 0.08 0.09 0.10 0.09 0.08 0.07 0.05 0.05 0.05 0.05 0.05 0.04
0.00 0.00 0.00 0.00 0.00 0.01 0.01 0.01 0.02 0.02 0.03 0.04 0.04 0.05 0.06 0.06 0.05 0.05 0.06 0.06 0.05 0.03 0.02 0.02 0.02 0.02 0.02 0.02 0.02 0.02 0.03 0.03 0.03 0.03 0.03 0.03 0.03 0.03 0.03 0.02 0.02 0.02 0.02
0.00 0.00 0.00 0.00 0.01 0.01 0.01 0.02 0.02 0.02 0.02 0.04 0.06 0.08 0.07 0.06 0.05 0.05 0.04 0.04 0.04 0.03 0.01 0.01 0.01 0.01 0.01 0.01 0.01 0.01 0.02 0.03 0.03 0.02 0.02 0.02 0.01 0.01 0.01 0.01 0.01 0.00 0.00
0.00 0.00 0.00 0.00 0.00 0.01 0.02 0.02 0.02 0.02 0.03 0.04 0.06 0.08 0.09 0.08 0.07 0.06 0.05 0.03 0.03 0.03 0.02 0.01 0.01 0.01 0.00 0.00 0.00 0.00 0.01 0.01 0.01 0.01 0.01 0.01 0.00 0.00 0.00 0.00 0.00 0.00 0.00
0.01 0.01 0.01 0.00 0.00 0.01 0.02 0.03 0.02 0.02 0.02 0.03 0.05 0.07 0.08 0.08 0.08 0.06 0.06 0.04 0.02 0.02 0.02 0.02 0.00 0.00 0.00 0.00 0.00 0.00 0.00 0.00 0.00 0.00 0.00 0.00 0.00 0.00 0.00 0.00 0.00 0.00 0.00
0.02 0.01 0.01 0.01 0.01 0.01 0.02 0.02 0.02 0.02 0.02 0.03 0.05 0.06 0.06 0.06 0.05 0.03 0.02 0.02 0.02 0.02 0.02 0.01 0.01 0.00 0.00 0.00 0.00 0.00 0.00 0.00 0.00 0.00 0.00 0.00 0.00 0.00 0.00 0.00 0.00 0.00 0.00
0.01 0.01 0.01 0.01 0.01 0.01 0.02 0.02 0.02 0.02 0.02 0.04 0.06 0.06 0.05 0.05 0.05 0.03 0.02 0.02 0.02 0.01 0.01 0.01 0.01 0.01 0.00 0.00 0.00 0.00 0.00 0.00 0.00 0.00 0.00 0.00 0.00 0.00 0.00 0.00 0.00 0.00 0.00
0.01 0.01 0.01 0.01 0.01 0.01 0.02 0.02 0.02 0.02 0.03 0.04 0.05 0.06 0.05 0.04 0.04 0.04 0.02 0.02 0.02 0.01 0.01 0.01 0.01 0.00 0.00 0.00 0.00 0.00 0.00 0.00 0.00 0.00 0.00 0.00 0.00 0.00 0.00 0.00 0.00 0.00 0.00
0.02 0.01 0.01 0.01 0.01 0.01 0.01 0.02 0.02 0.03 0.03 0.04 0.04 0.05 0.04 0.03 0.03 0.02 0.02 0.01 0.01 0.01 0.01 0.01 0.00 0.00 0.00 0.00 0.00 0.00 0.00 0.00 0.00 0.00 0.00 0.00 0.00 0.00 0.00 0.00 0.00 0.00 0.00
0.02 0.02 0.02 0.01 0.01 0.01 0.01 0.01 0.02 0.02 0.02 0.03 0.03 0.03 0.03 0.02 0.02 0.02 0.01 0.01 0.01 0.01 0.01 0.01 0.01 0.00 0.00 0.00 0.00 0.00 0.00 0.00 0.00 0.00 0.00 0.00 0.00 0.00 0.00 0.00 0.00 0.00 0.00
0.02 0.02 0.02 0.02 0.02 0.01 0.01 0.02 0.03 0.03 0.03 0.03 0.03 0.02 0.02 0.01 0.01 0.01 0.01 0.01 0.01 0.01 0.01 0.01 0.01 0.01 0.00 0.00 0.00 0.00 0.00 0.00 0.00 0.00 0.00 0.00 0.00 0.00 0.00 0.00 0.00 0.00 0.00
0.02 0.03 0.04 0.04 0.03 0.03 0.03 0.04 0.03 0.03 0.02 0.02 0.03 0.02 0.01 0.01 0.01 0.01 0.01 0.00 0.00 0.01 0.01 0.00 0.00 0.00 0.00 0.00 0.00 0.00 0.00 0.00 0.00 0.00 0.00 0.00 0.00 0.00 0.00 0.00 0.00 0.00 0.00
0.03 0.04 0.05 0.05 0.05 0.05 0.04 0.03 0.03 0.03 0.02 0.02 0.03 0.02 0.01 0.01 0.01 0.01 0.01 0.01 0.01 0.01 0.00 0.00 0.00 0.00 0.00 0.00 0.00 0.00 0.00 0.00 0.00 0.00 0.00 0.00 0.00 0.00 0.00 0.00 0.00 0.00 0.00
0.04 0.05 0.05 0.04 0.05 0.04 0.03 0.02 0.02 0.02 0.02 0.02 0.02 0.01 0.01 0.01 0.00 0.00 0.01 0.01 0.01 0.00 0.00 0.00 0.00 0.00 0.00 0.00 0.00 0.00 0.00 0.00 0.00 0.00 0.00 0.00 0.00 0.00 0.00 0.00 0.00 0.00 0.00
0.03 0.04 0.04 0.04 0.03 0.02 0.02 0.01 0.01 0.02 0.02 0.02 0.01 0.01 0.00 0.00 0.00 0.00 0.00 0.01 0.01 0.01 0.00 0.00 0.00 0.00 0.00 0.00 0.00 0.00 0.00 0.00 0.00 0.00 0.00 0.00 0.00 0.00 0.00 0.00 0.00 0.00 0.00
0.02 0.02 0.03 0.03 0.03 0.02 0.01 0.01 0.02 0.02 0.01 0.01 0.01 0.00 0.00 0.00 0.00 0.00 0.00 0.00 0.01 0.00 0.00 0.00 0.00 0.00 0.00 0.00 0.00 0.00 0.00 0.00 0.00 0.00 0.00 0.00 0.00 0.00 0.00 0.00 0.00 0.00 0.00
0.02 0.02 0.03 0.03 0.02 0.02 0.02 0.01 0.02 0.01 0.01 0.01 0.00 0.00 0.00 0.00 0.00 0.00 0.00 0.00 0.00 0.00 0.00 0.00 0.00 0.00 0.00 0.00 0.00 0.00 0.00 0.00 0.00 0.00 0.00 0.00 0.00 0.00 0.00 0.00 0.00 0.00 0.00
MSLP
1011.61 1011.14 1010.58 1009.99 1009.44 1009.01 1008.76 1008.74 1008.96 1009.40 1010.01 1010.71 1011.44 1012.13 1012.74 1013.24 1013.62 1013.91 1014.13 1014.32 1014.51 1014.71 1014.93 1015.20 1015.51 1015.86 1016.27 1016.75 1017.29 1017.92 1018.62 1019.38 1020.16 1020.95 1021.70 1022.38 1022.96 1023.42 1023.76 1023.98 1024.12 1024.20 1024.24
1012.38 1011.91 1011.32 1010.67 1010.04 1009.50 1009.14 1009.02 1009.16 1009.53 1010.09 1010.77 1011.48 1012.15 1012.72 1013.16 1013.48 1013.68 1013.82 1013.93 1014.05 1014.21 1014.43 1014.70 1015.03 1015.41 1015.85 1016.34 1016.90 1017.52 1018.22 1018.98 1019.79 1020.62 1021.44 1022.21 1022.89 1023.47 1023.93 1024.28 1024.51 1024.67 1024.76
1013.05 1012.63 1012.07 1011.41 1010.73 1010.13 1009.68 1009.45 1009.49 1009.78 1010.26 1010.87 1011.51 1012.12 1012.62 1012.99 1013.21 1013.33 1013.38 1013.42 1013.49 1013.61 1013.82 1014.11 1014.46 1014.88 1015.34 1015.85 1016.41 1017.02 1017.70 1018.45 1019.26 1020.11 1020.97 1021.82 1022.61 1023.31 1023.90 1024.38 1024.74 1025.00 1025.18
1013.58 1013.25 1012.77 1012.15 1011.48 1010.85 1010.34 1010.02 1009.95 1010.13 1010.50 1011.00 1011.55 1012.06 1012.47 1012.74 1012.88 1012.91 1012.89 1012.87 1012.90 1013.01 1013.22 1013.53 1013.91 1014.36 1014.85 1015.38 1015.93 1016.53 1017.18 1017.90 1018.68 1019.52 1020.40 1021.28 1022.14 1022.95 1023.66 1024.27 1024.76 1025.14 1025.42
1013.97 1013.78 1013.41 1012.88 1012.26 1011.63 1011.08 1010.69 1010.52 1010.57 1010.81 1011.18 1011.61 1012.00 1012.31 1012.49 1012.55 1012.52 1012.45 1012.39 1012.40 1012.51 1012.74 1013.07 1013.50 1013.98 1014.49 1015.03 1015.58 1016.15 1016.76 1017.42 1018.16 1018.95 1019.81 1020.69 1021.58 1022.44 1023.24 1023.95 1024.56 1025.06 1025.45
1014.28 1014.22 1013.99 1013.59 1013.05 1012.46 1011.89 1011.44 1011.17 1011.10 1011.20 1011.43 1011.73 1012.01 1012.22 1012.32 1012.33 1012.26 1012.17 1012.11 1012.12 1012.25 1012.50 1012.86 1013.32 1013.83 1014.36 1014.89 1015.43 1015.96 1016.52 1017.12 1017.78 1018.50 1019.28 1020.12 1020.99 1021.86 1022.69 1023.47 1024.17 1024.77 1025.26
1014.52 1014.61 1014.53 1014.27 1013.83 1013.30 1012.74 1012.25 1011.90 1011.70 1011.67 1011.77 1011.94 1012.11 1012.25 1012.30 1012.29 1012.22 1012.14 1012.10 1012.14 1012.30 1012.58 1012.97 1013.44 1013.96 1014.49 1015.02 1015.53 1016.02 1016.51 1017.03 1017.59 1018.21 1018.90 1019.64 1020.44 1021.26 1022.08 1022.88 1023.62 1024.29 1024.87
1014.73 1014.97 1015.04 1014.90 1014.58 1014.12 1013.59 1013.08 1012.66 1012.38 1012.23 1012.21 1012.28 1012.37 1012.45 1012.49 1012.48 1012.44 1012.40 1012.41 1012.50 1012.69 1013.00 1013.40 1013.87 1014.38 1014.90 1015.40 1015.87 1016.31 1016.73 1017.16 1017.62 1018.13 1018.69 1019.32 1020.01 1020.74 1021.50 1022.26 1023.01 1023.72 1024.37
1014.94 1015.29 1015.49 1015.49 1015.28 1014.90 1014.42 1013.91 1013.46 1013.10 1012.87 1012.77 1012.75 1012.80 1012.85 1012.90 1012.93 1012.94 1012.97 1013.03 1013.17 1013.39 1013.71 1014.10 1014.56 1015.04 1015.52 1015.97 1016.39 1016.77 1017.13 1017.48 1017.85 1018.24 1018.69 1019.19 1019.75 1020.37 1021.04 1021.75 1022.47 1023.18 1023.86
1015.13 1015.59 1015.90 1016.01 1015.91 1015.62 1015.20 1014.72 1014.25 1013.87 1013.59 1013.43 1013.38 1013.39 1013.45 1013.53 1013.60 1013.68 1013.78 1013.90 1014.08 1014.32 1014.63 1015.00 1015.41 1015.83 1016.25 1016.65 1017.01 1017.35 1017.65 1017.94 1018.23 1018.54 1018.89 1019.28 1019.73 1020.24 1020.81 1021.43 1022.10 1022.79 1023.48
1015.31 1015.84 1016.24 1016.45 1016.44 1016.24 1015.89 1015.46 1015.03 1014.65 1014.37 1014.20 1014.13 1014.15 1014.22 1014.34 1014.46 1014.60 1014.76 1014.93 1015.13 1015.37 1015.65 1015.97 1016.31 1016.66 1017.02 1017.35 1017.67 1017.96 1018.23 1018.49 1018.75 1019.01 1019.30 1019.61 1019.97 1020.39 1020.87 1021.41 1022.01 1022.65 1023.32
1015.48 1016.07 1016.52 1016.80 1016.88 1016.76 1016.50 1016.15 1015.78 1015.45 1015.19 1015.04 1014.98 1015.02 1015.12 1015.26 1015.44 1015.62 1015.81 1016.01 1016.22 1016.44 1016.67 1016.93 1017.19 1017.47 1017.75 1018.02 1018.30 1018.57 1018.83 1019.09 1019.35 1019.61 1019.88 1020.16 1020.47 1020.82 1021.22 1021.69 1022.22 1022.80 1023.42
1015.66 1016.27 1016.76 1017.08 1017.22 1017.20 1017.03 1016.78 1016.50 1016.24 1016.05 1015.93 1015.91 1015.97 1016.09 1016.26 1016.45 1016.66 1016.86 1017.06 1017.26 1017.45 1017.63 1017.82 1018.01 1018.21 1018.42 1018.65 1018.90 1019.16 1019.44 1019.73 1020.02 1020.31 1020.59 1020.88 1021.17 1021.48 1021.83 1022.24 1022.70 1023.21 1023.78
1015.87 1016.47 1016.96 1017.31 1017.51 1017.56 1017.50 1017.36 1017.19 1017.03 1016.91 1016.86 1016.87 1016.95 1017.09 1017.26 1017.46 1017.66 1017.86 1018.05 1018.23 1018.38 1018.52 1018.64 1018.77 1018.91 1019.07 1019.26 1019.50 1019.77 1020.07 1020.40 1020.74 1021.08 1021.41 1021.72 1022.02 1022.31 1022.63 1022.97 1023.37 1023.81 1024.30
1016.15 1016.71 1017.18 1017.53 1017.76 1017.89 1017.92 1017.90 1017.85 1017.80 1017.77 1017.78 1017.84 1017.94 1018.08 1018.24 1018.42 1018.61 1018.80 1018.96 1019.11 1019.23 1019.33 1019.42 1019.51 1019.61 1019.73 1019.91 1020.13 1020.42 1020.75 1021.12 1021.51 1021.90 1022.27 1022.61 1022.92 1023.21 1023.50 1023.79 1024.12 1024.48 1024.89
1016.50 1017.01 1017.43 1017.77 1018.02 1018.20 1018.33 1018.41 1018.48 1018.54 1018.60 1018.68 1018.77 1018.89 1019.02 1019.17 1019.33 1019.49 1019.65 1019.80 1019.93 1020.04 1020.13 1020.20 1020.26 1020.35 1020.46 1020.62 1020.85 1021.14 1021.49 1021.89 1022.31 1022.73 1023.13 1023.49 1023.81 1024.09 1024.34 1024.59 1024.84 1025.12 1025.44
1016.94 1017.37 1017.74 1018.05 1018.31 1018.53 1018.73 1018.92 1019.09 1019.24 1019.39 1019.52 1019.65 1019.77 1019.89 1020.02 1020.16 1020.30 1020.45 1020.59 1020.72 1020.83 1020.93 1021.01 1021.08 1021.17 1021.28 1021.44 1021.66 1021.95 1022.30 1022.70 1023.12 1023.54 1023.94 1024.30 1024.61 1024.86 1025.08 1025.27 1025.45 1025.66 1025.88
1017.45 1017.80 1018.11 1018.38 1018.64 1018.90 1019.15 1019.41 1019.66 1019.90 1020.11 1020.29 1020.44 1020.57 1020.68 1020.79 1020.91 1021.04 1021.19 1021.34 1021.49 1021.63 1021.76 1021.87 1021.97 1022.07 1022.19 1022.35 1022.56 1022.83 1023.15 1023.52 1023.91 1024.31 1024.68 1025.00 1025.28 1025.50 1025.66 1025.80 1025.92 1026.05 1026.18
1017.99 1018.28 1018.53 1018.77 1019.02 1019.29 1019.58 1019.89 1020.20 1020.49 1020.74 1020.95 1021.12 1021.25 1021.36 1021.47 1021.58 1021.72 1021.88 1022.05 1022.24 1022.43 1022.60 1022.75 1022.89 1023.02 1023.16 1023.31 1023.50 1023.73 1024.01 1024.32 1024.66 1025.00 1025.31 1025.59 1025.82 1025.99 1026.11 1026.19 1026.26 1026.31 1026.38
1018.54 1018.79 1018.99 1019.20 1019.44 1019.71 1020.03 1020.36 1020.70 1021.02 1021.29 1021.52 1021.70 1021.83 1021.94 1022.05 1022.18 1022.33 1022.52 1022.73 1022.96 1023.20 1023.42 1023.62 1023.80 1023.95 1024.09 1024.24 1024.40 1024.59 1024.81 1025.06 1025.33 1025.59 1025.84 1026.06 1026.23 1026.36 1026.44 1026.48 1026.50 1026.51 1026.52
1019.07 1019.28 1019.47 1019.66 1019.89 1020.16 1020.47 1020.81 1021.15 1021.47 1021.75 1021.99 1022.17 1022.31 1022.43 1022.56 1022.70 1022.88 1023.10 1023.35 1023.63 1023.91 1024.18 1024.42 1024.62 1024.79 1024.94 1025.07 1025.20 1025.34 1025.50 1025.68 1025.88 1026.08 1026.27 1026.43 1026.56 1026.65 1026.69 1026.71 1026.70 1026.69 1026.66
1019.56 1019.77 1019.95 1020.14 1020.35 1020.62 1020.92 1021.24 1021.57 1021.88 1022.15 1022.37 1022.55 1022.70 1022.84 1022.99 1023.16 1023.37 1023.62 1023.91 1024.22 1024.53 1024.83 1025.09 1025.31 1025.49 1025.63 1025.74 1025.84 1025.94 1026.05 1026.18 1026.31 1026.45 1026.59 1026.71 1026.81 1026.87 1026.91 1026.92 1026.91 1026.88 1026.84
1019.99 1020.22 1020.41 1020.60 1020.82 1021.07 1021.35 1021.65 1021.95 1022.23 1022.48 1022.70 1022.88 1023.04 1023.20 1023.37 1023.58 1023.82 1024.09 1024.41 1024.74 1025.06 1025.37 1025.63 1025.85 1026.02 1026.15 1026.24 1026.31 1026.38 1026.45 1026.53 1026.63 1026.73 1026.83 1026.93 1027.01 1027.06 1027.10 1027.12 1027.12 1027.09 1027.06
1020.38 1020.63 1020.85 1021.05 1021.26 1021.50 1021.75 1022.02 1022.29 1022.54 1022.78 1022.98 1023.17 1023.35 1023.53 1023.73 1023.96 1024.23 1024.53 1024.85 1025.18 1025.50 1025.79 1026.04 1026.24 1026.39 1026.50 1026.57 1026.62 1026.66 1026.71 1026.77 1026.84 1026.92 1027.01 1027.09 1027.17 1027.23 1027.28 1027.31 1027.32 1027.32 1027.30
1020.73 1021.00 1021.23 1021.45 1021.66 1021.89 1022.12 1022.35 1022.59 1022.82 1023.04 1023.24 1023.44 1023.64 1023.85 1024.08 1024.34 1024.62 1024.93 1025.25 1025.56 1025.86 1026.13 1026.35 1026.52 1026.64 1026.72 1026.78 1026.81 1026.84 1026.88 1026.93 1026.99 1027.06 1027.14 1027.22 1027.30 1027.37 1027.43 1027.48 1027.51 1027.53 1027.52
1021.00 1021.29 1021.54 1021.77 1021.98 1022.19 1022.41 1022.62 1022.84 1023.06 1023.27 1023.48 1023.70 1023.92 1024.17 1024.42 1024.71 1025.00 1025.31 1025.62 1025.91 1026.18 1026.41 1026.59 1026.73 1026.82 1026.88 1026.92 1026.94 1026.97 1027.00 1027.05 1027.11 1027.18 1027.25 1027.33 1027.41 1027.49 1027.56 1027.61 1027.66 1027.69 1027.69
Thickness
5694 5696 5697 5699 5701 5701 5700 5700 5700 5700 5701 5700 5697 5694 5692 5691 5691 5692 5691 5692 5693 5694 5694 5694 5694 5693 5693 5692 5691 5689 5687 5685 5684 5680 5676 5675 5676 5677 5677 5678 5677 5676 5675
5684 5685 5686 5687 5688 5688 5689 5691 5692 5692 5694 5693 5693 5690 5688 5685 5684 5683 5684 5685 5687 5689 5688 5690 5689 5690 5689 5688 5686 5685 5682 5681 5681 5677 5672 5667 5666 5667 5668 5669 5669 5667 5666
5674 5674 5674 5674 5676 5677 5678 5680 5682 5684 5686 5686 5685 5683 5681 5679 5677 5676 5676 5677 5679 5681 5682 5683 5684 5684 5684 5684 5683 5682 5681 5678 5676 5677 5673 5668 5664 5660 5659 5659 5659 5658 5657
5663 5662 5662 5661 5663 5665 5668 5670 5672 5675 5677 5678 5677 5675 5674 5672 5670 5668 5667 5668 5670 5671 5674 5676 5678 5678 5680 5679 5679 5679 5679 5677 5674 5672 5672 5672 5669 5661 5653 5649 5648 5647 5646
5653 5651 5651 5650 5652 5654 5657 5659 5662 5664 5666 5667 5668 5667 5665 5663 5661 5660 5660 5660 5661 5663 5665 5669 5670 5671 5672 5673 5673 5675 5675 5674 5673 5671 5668 5665 5663 5662 5655 5646 5640 5637 5635
5643 5641 5640 5640 5640 5642 5646 5648 5651 5653 5655 5656 5656 5656 5655 5654 5652 5652 5651 5651 5652 5654 5656 5658 5661 5662 5664 5665 5666 5668 5669 5669 5668 5668 5666 5664 5661 5657 5653 5646 5638 5631 5625
5634 5631 5630 5629 5629 5631 5634 5637 5640 5641 5643 5644 5644 5645 5645 5644 5643 5643 5642 5642 5642 5643 5644 5647 5649 5651 5653 5655 5657 5658 5659 5661 5661 5661 5660 5658 5657 5655 5651 5644 5633 5623 5616
5625 5621 5619 5619 5619 5620 5623 5626 5628 5629 5631 5631 5631 5632 5633 5632 5632 5632 5632 5632 5631 5631 5632 5636 5638 5640 5642 5645 5646 5648 5648 5650 5651 5651 5651 5649 5648 5647 5644 5639 5630 5618 5609
5617 5614 5611 5610 5610 5611 5612 5614 5616 5618 5619 5620 5620 5620 5620 5621 5620 5620 5621 5621 5621 5622 5623 5625 5627 5629 5631 5633 5635 5636 5636 5638 5638 5639 5640 5639 5637 5635 5634 5632 5628 5620 5608
5611 5606 5603 5602 5601 5601 5602 5604 5605 5606 5607 5609 5610 5609 5609 5609 5609 5609 5610 5610 5610 5612 5614 5614 5615 5618 5619 5621 5623 5623 5625 5627 5626 5626 5627 5626 5625 5623 5622 5619 5616 5613 5608
5606 5600 5596 5594 5592 5592 5593 5594 5595 5596 5596 5597 5597 5598 5598 5598 5598 5598 5598 5598 5599 5601 5602 5603 5604 5605 5607 5609 5610 5611 5613 5614 5613 5614 5614 5612 5612 5611 5609 5607 5604 5601 5598
5599 5594 5589 5587 5585 5584 5584 5584 5584 5585 5585 5586 5586 5586 5586 5587 5587 5587 5587 5588 5588 5589 5590 5591 5593 5594 5595 5596 5598 5599 5600 5600 5600 5600 5601 5600 5600 5598 5596 5594 5592 5588 5585
5593 5587 5582 5579 5576 5575 5574 5574 5574 5574 5574 5575 5575 5575 5575 5575 5575 5575 5575 5576 5577 5578 5579 5580 5581 5582 5583 5584 5585 5586 5586 5586 5586 5587 5587 5586 5587 5584 5582 5580 5578 5575 5572
5587 5581 5575 5571 5568 5566 5565 5564 5563 5564 5564 5565 5565 5564 5563 5563 5563 5563 5564 5565 5566 5567 5568 5569 5570 5570 5571 5572 5573 5573 5574 5574 5574 5574 5574 5574 5574 5572 5570 5568 5565 5562 5558
5581 5575 5568 5563 5560 5557 5555 5555 5554 5554 5554 5554 5554 5553 5553 5552 5553 5553 5553 5554 5555 5556 5557 5558 5558 5559 5560 5561 5561 5562 5562 5562 5561 5561 5561 5561 5560 5560 5559 5557 5553 5550 5546
5576 5568 5562 5556 5552 5549 5547 5546 5545 5544 5545 5545 5544 5544 5544 5543 5542 5542 5543 5543 5544 5545 5547 5547 5547 5548 5548 5549 5550 5550 5549 5549 5548 5548 5547 5547 5547 5547 5546 5544 5541 5539 5536
5570 5562 5555 5550 5546 5542 5540 5537 5536 5536 5536 5535 5535 5534 5534 5534 5533 5533 5532 5533 5533 5534 5534 5535 5536 5536 5536 5538 5539 5539 5538 5537 5535 5535 5535 5535 5534 5533 5532 5530 5529 5526 5524
5562 5554 5547 5542 5537 5534 5531 5529 5528 5527 5527 5527 5526 5526 5526 5525 5524 5524 5523 5522 5523 5523 5524 5524 5525 5526 5526 5528 5529 5528 5527 5526 5524 5523 5523 5522 5521 5521 5520 5519 5516 5514 5511
5555 5547 5540 5535 5530 5527 5524 5522 5520 5520 5520 5519 5519 5518 5518 5517 5517 5516 5515 5515 5515 5514 5514 5515 5516 5517 5517 5519 5520 5520 5518 5515 5513 5513 5512 5512 5511 5510 5509 5508 5506 5504 5501
5547 5539 5533 5528 5524 5520 5518 5516 5514 5514 5513 5513 5512 5512 5512 5511 5510 5509 5508 5508 5507 5507 5507 5507 5507 5508 5508 5509 5511 5511 5509 5506 5504 5504 5503 5503 5502 5501 5500 5499 5497 5495 5493
5539 5533 5527 5522 5518 5515 5513 5511 5509 5508 5508 5507 5507 5506 5506 5505 5504 5503 5502 5501 5501 5500 5499 5499 5499 5499 5500 5501 5502 5502 5501 5499 5497 5497 5496 5495 5495 5494 5493 5492 5490 5488 5487
5533 5527 5521 5517 5513 5511 5509 5507 5504 5503 5503 5503 5502 5501 5501 5501 5500 5498 5496 5495 5494 5494 5493 5492 5492 5491 5492 5493 5494 5494 5494 5493 5492 5490 5489 5489 5489 5489 5488 5487 5485 5484 5482
5527 5522 5517 5513 5509 5507 5506 5504 5501 5500 5500 5499 5497 5496 5496 5495 5495 5494 5492 5490 5489 5488 5487 5486 5485 5484 5485 5486 5487 5487 5487 5487 5486 5485 5485 5485 5485 5484 5483 5482 5480 5479 5478
5523 5518 5514 5510 5507 5505 5504 5502 5500 5499 5497 5495 5493 5492 5492 5490 5489 5489 5488 5486 5485 5484 5484 5483 5481 5480 5480 5480 5481 5481 5481 5481 5481 5481 5481 5481 5480 5479 5478 5476 5475 5474 5472
5520 5516 5512 5509 5506 5503 5501 5500 5499 5497 5494 5492 5490 5489 5488 5487 5485 5484 5483 5483 5482 5482 5482 5480 5478 5477 5477 5476 5477 5477 5478 5478 5478 5478 5478 5477 5476 5475 5473 5472 5470 5469 5468
5519 5514 5510 5507 5504 5502 5500 5499 5498 5496 5493 5491 5488 5487 5485 5484 5483 5482 5480 5480 5481 5481 5480 5479 5477 5476 5476 5475 5476 5476 5477 5477 5477 5476 5475 5473 5472 5470 5469 5468 5468 5466 5465